Waarnemingen

Advertentie
Mijn weer
D15-FA-1, Nederland (6201): temperatuur & dauwpunt: 16.01.2018 21:00:00 - 22.01.2018 21:00:00 (CET)D15-FA-1, Nederland (6201): windsnelheid & windstoten: 16.01.2018 21:00:00 - 22.01.2018 21:00:00 (CET)D15-FA-1, Nederland (6201): windrichting: 16.01.2018 21:00:00 - 22.01.2018 21:00:00 (CET)D15-FA-1, Nederland (6201): luchtdruk: 16.01.2018 21:00:00 - 22.01.2018 21:00:00 (CET)D15-FA-1, Nederland (6201): zicht: 16.01.2018 21:00:00 - 22.01.2018 21:00:00 (CET)
Datum & Tijd tt [°C] td [°C] ff [km/u] ff [kn] fx [km/u] fx [kn] dd ppp [hPa] vv [km]
22.01.2018 21:00:00 6,7 4,6 36 19 - - W 1011,6 15
22.01.2018 20:00:00 6,7 4,8 36 19 47 25 W 1010,9 15
22.01.2018 19:00:00 6,7 4,5 40 21 47 25 W 1010,1 15
22.01.2018 18:00:00 6,7 4,4 46 25 47 25 W 1009,2 10
22.01.2018 17:00:00 6,8 4,7 32 18 40 21 W 1008,4 14
22.01.2018 16:00:00 6,8 4,7 36 19 43 23 W 1007,6 14
22.01.2018 15:00:00 6,6 4,5 32 18 43 23 W 1006,5 13
22.01.2018 14:00:00 6,4 4,8 29 16 43 23 W 1005,7 13
22.01.2018 13:00:00 6,6 4,5 36 19 43 23 W 1005,0 14
22.01.2018 12:00:00 6,5 4,6 25 14 40 21 W 1004,9 14
22.01.2018 11:00:00 6,5 4,4 36 19 40 21 W 1004,1 16
22.01.2018 10:00:00 6,3 4,5 32 18 - - W 1003,4 16
22.01.2018 09:00:00 6,3 4,6 39 21 40 21 W 1002,8 10
22.01.2018 08:00:00 6,3 4,5 32 18 40 21 W 1002,4 17
22.01.2018 07:00:00 6,3 4,8 25 14 32 18 W 1002,1 18
22.01.2018 06:00:00 6,1 4,9 29 16 32 18 W 1001,4 21
22.01.2018 05:00:00 5,8 4,9 25 14 40 21 W 1000,9 21
22.01.2018 04:00:00 5,7 5,1 29 16 36 19 W 1000,8 16
22.01.2018 03:00:00 5,6 5,3 25 14 40 21 ZW 1001,2 8
22.01.2018 02:00:00 5,1 4,6 48 26 54 29 Z 1001,6 10
22.01.2018 01:00:00 4,4 3,6 47 25 61 33 ZZO 1002,3 20
22.01.2018 00:00:00 4,1 3,3 50 27 65 35 ZZO 1003,4 13
21.01.2018 23:00:00 3,6 2,5 50 27 72 39 Z 1004,5 22
21.01.2018 22:00:00 4,1 2,1 43 23 54 29 Z 1005,2 28
21.01.2018 21:00:00 4,0 1,3 47 25 61 33 ZZO 1006,9 46
21.01.2018 20:00:00 5,0 -0,5 36 19 47 25 ZZO 1008,1 48
21.01.2018 19:00:00 5,0 -0,3 29 16 36 19 Z 1009,5 50
21.01.2018 18:00:00 5,1 0,9 25 14 29 16 Z 1010,4 48
21.01.2018 17:00:00 5,3 1,0 25 14 29 16 Z 1010,9 45
21.01.2018 16:00:00 5,3 0,7 22 12 - - Z 1011,6 10
21.01.2018 15:00:00 5,2 0,5 14 8 18 10 Z 1012,0 48
21.01.2018 14:00:00 5,1 0,3 11 6 14 8 Z 1012,8 50
21.01.2018 13:00:00 5,1 1,1 11 6 14 8 Z 1013,4 45
21.01.2018 12:00:00 5,3 1,2 9 5 11 6 W 1013,6 10
21.01.2018 11:00:00 5,2 0,8 5 3 11 6 W 1013,3 10
21.01.2018 10:00:00 5,4 0,9 7 4 18 10 W 1013,1 49
21.01.2018 09:00:00 5,1 0,6 18 10 22 12 WNW 1012,4 50
21.01.2018 08:00:00 5,2 1,2 11 6 18 10 WNW 1012,0 49
21.01.2018 07:00:00 5,3 1,2 18 10 25 14 NNW 1011,3 50
21.01.2018 06:00:00 5,2 1,0 22 12 29 16 NW 1010,8 50
21.01.2018 05:00:00 5,4 0,8 28 15 32 18 NW 1010,1 10
21.01.2018 04:00:00 5,3 0,0 29 16 - - NW 1009,4 50
21.01.2018 03:00:00 5,4 -0,2 29 16 36 19 NNW 1008,6 50
21.01.2018 02:00:00 5,0 0,3 25 14 36 19 NNW 1007,6 49
21.01.2018 01:00:00 4,3 0,3 25 14 58 31 NW 1006,5 50
21.01.2018 00:00:00 4,4 0,2 29 16 58 31 NNW 1005,2 49
20.01.2018 23:00:00 4,8 0,5 32 18 50 27 NW 1004,3 48
20.01.2018 22:00:00 4,9 1,0 43 23 - - NNW 1003,1 42
20.01.2018 21:00:00 5,0 -0,7 46 25 50 27 NNW 1002,0 10
20.01.2018 20:00:00 4,8 0,6 32 18 43 23 WNW 1001,1 49
20.01.2018 19:00:00 5,3 0,4 29 16 40 21 WNW 1000,3 50
20.01.2018 18:00:00 5,1 1,0 25 14 36 19 WNW 999,4 46
20.01.2018 17:00:00 4,5 1,4 29 16 36 19 NW 999,0 41
20.01.2018 16:00:00 5,2 1,4 29 16 - - W 998,2 32
20.01.2018 15:00:00 5,1 1,2 29 16 32 18 W 997,9 29
20.01.2018 14:00:00 5,0 1,3 22 12 29 16 WZW 998,1 27
20.01.2018 13:00:00 5,1 1,3 22 12 32 18 WZW 998,5 28
20.01.2018 12:00:00 5,1 0,8 28 15 29 16 WZW 999,1 10
20.01.2018 11:00:00 5,1 1,9 25 14 29 16 WZW 999,3 23
20.01.2018 10:00:00 4,8 1,7 25 14 32 18 WZW 999,8 26
20.01.2018 09:00:00 5,0 1,5 22 12 32 18 WZW 999,9 33
20.01.2018 08:00:00 4,9 1,2 29 16 32 18 WZW 1000,0 29
20.01.2018 07:00:00 4,9 0,4 22 12 32 18 WZW 1000,2 45
20.01.2018 06:00:00 4,8 -0,6 31 17 36 19 W 1000,8 10
20.01.2018 05:00:00 5,0 -0,3 29 16 50 27 W 1001,1 49
20.01.2018 04:00:00 5,0 0,3 44 24 54 29 W 1001,0 10
20.01.2018 03:00:00 4,4 0,9 29 16 61 33 WZW 1001,2 37
20.01.2018 02:00:00 4,2 1,2 32 18 50 27 W 1001,5 26
20.01.2018 01:00:00 5,3 1,1 29 16 40 21 WZW 1001,7 28
20.01.2018 00:00:00 5,3 0,9 35 19 40 21 W 1002,1 10
19.01.2018 23:00:00 5,1 0,2 32 18 47 25 W 1002,2 36
19.01.2018 22:00:00 5,1 0,3 36 19 47 25 W 1002,3 38
19.01.2018 21:00:00 5,1 -0,1 36 19 50 27 W 1002,3 33
19.01.2018 20:00:00 4,3 0,4 37 20 47 25 W 1002,2 10
19.01.2018 19:00:00 5,1 0,8 32 18 40 21 WZW 1002,2 30
19.01.2018 18:00:00 5,1 0,9 39 21 47 25 W 1002,5 10
19.01.2018 17:00:00 5,1 0,8 32 18 43 23 W 1002,6 30
19.01.2018 16:00:00 5,0 0,9 32 18 - - W 1002,6 28
19.01.2018 15:00:00 4,9 0,6 32 18 47 25 W 1002,7 33
19.01.2018 14:00:00 5,0 1,2 32 18 47 25 W 1002,6 31
19.01.2018 13:00:00 5,0 0,8 32 18 43 23 W 1002,7 34
19.01.2018 12:00:00 5,1 0,7 32 18 47 25 W 1003,1 29
19.01.2018 11:00:00 5,1 0,4 39 21 47 25 W 1002,6 10
19.01.2018 10:00:00 5,2 0,4 42 23 43 23 W 1002,4 10
19.01.2018 09:00:00 5,0 0,8 42 23 43 23 W 1002,3 10
19.01.2018 08:00:00 5,3 0,7 42 23 43 23 W 1001,8 10
19.01.2018 07:00:00 5,3 0,6 41 22 54 29 W 1001,3 10
19.01.2018 06:00:00 5,3 1,0 34 18 47 25 WNW 1000,9 10
19.01.2018 05:00:00 5,3 0,1 42 23 43 23 W 1000,6 10
19.01.2018 04:00:00 5,2 1,4 28 15 47 25 NW 1000,3 10
19.01.2018 03:00:00 4,3 2,1 34 18 47 25 W 1000,1 10
19.01.2018 02:00:00 4,2 1,4 29 16 47 25 NW 999,9 9
19.01.2018 01:00:00 5,0 2,1 24 13 40 21 WNW 999,5 10
19.01.2018 00:00:00 5,4 1,9 35 19 36 19 W 999,1 10
18.01.2018 23:00:00 5,3 1,3 34 18 36 19 W 999,0 10
18.01.2018 22:00:00 4,5 1,2 34 18 - - - 998,9 10
18.01.2018 21:00:00 5,4 1,8 28 15 36 19 W 998,6 10
18.01.2018 20:00:00 5,3 1,1 37 20 36 19 W 998,2 10
18.01.2018 19:00:00 5,3 1,7 29 16 43 23 W 997,9 10
18.01.2018 18:00:00 5,5 1,1 37 20 40 21 W 997,6 10
18.01.2018 17:00:00 5,5 2,0 41 22 43 23 WNW 997,0 10
18.01.2018 16:00:00 6,2 1,1 39 21 43 23 WNW 996,2 10
18.01.2018 15:00:00 6,0 1,4 35 19 47 25 WNW 995,3 10
18.01.2018 14:00:00 5,8 0,8 46 25 58 31 WNW 994,8 10
18.01.2018 13:00:00 5,2 1,3 46 25 61 33 WNW 993,6 10
18.01.2018 12:00:00 4,8 2,4 39 21 47 25 NW 993,3 8
18.01.2018 11:00:00 4,3 1,6 52 28 58 31 NNW 991,1 10
18.01.2018 10:00:00 3,9 2,3 59 32 68 37 N 988,7 10
18.01.2018 09:00:00 3,6 2,0 72 39 72 39 N 985,1 7
18.01.2018 08:00:00 2,4 1,5 67 36 65 35 NNO 981,2 6
18.01.2018 07:00:00 1,5 1,2 41 22 43 23 ONO 979,6 5
18.01.2018 06:00:00 0,8 0,5 42 23 50 27 O 981,0 2,1
18.01.2018 05:00:00 2,4 1,0 41 22 50 27 ZO 984,2 10
18.01.2018 04:00:00 3,8 1,1 34 18 43 23 Z 988,0 10
18.01.2018 03:00:00 4,5 0,2 34 18 36 19 ZW 990,9 10
18.01.2018 02:00:00 5,5 2,1 35 19 36 19 ZW 992,6 10
18.01.2018 01:00:00 5,7 2,1 37 20 40 21 WZW 994,7 10
18.01.2018 00:00:00 5,8 1,9 42 23 47 25 W 996,2 10
17.01.2018 23:00:00 5,8 1,3 50 27 61 33 W 997,3 10
17.01.2018 22:00:00 5,9 1,5 63 34 - - W 997,8 10
17.01.2018 21:00:00 5,8 1,0 63 34 72 39 - 997,6 10
17.01.2018 20:00:00 5,9 1,0 59 32 72 39 W 997,8 10
17.01.2018 19:00:00 6,1 0,9 63 34 68 37 W 998,1 10
17.01.2018 18:00:00 6,2 1,0 59 32 72 39 W 998,1 10
17.01.2018 17:00:00 6,1 1,3 57 31 79 43 W 997,9 10
17.01.2018 16:00:00 5,8 0,7 74 40 - - W 996,9 10
17.01.2018 15:00:00 6,1 0,3 65 35 79 43 W 996,3 10
17.01.2018 14:00:00 5,8 -0,4 72 39 76 41 W 995,6 10
17.01.2018 13:00:00 5,7 -0,1 63 34 72 39 WNW 994,5 10
17.01.2018 12:00:00 5,1 1,0 57 31 76 41 WNW 993,6 10
17.01.2018 11:00:00 5,1 0,7 46 25 68 37 WNW 992,5 10
17.01.2018 10:00:00 4,6 0,6 68 37 79 43 WNW 991,6 10
17.01.2018 09:00:00 5,2 -1,0 59 32 68 37 NW 990,4 10
17.01.2018 08:00:00 4,1 -0,6 57 31 65 35 W 989,4 10
17.01.2018 07:00:00 4,2 0,1 57 31 68 37 - 988,5 10
17.01.2018 06:00:00 4,5 -1,5 63 34 65 35 W 987,9 10
17.01.2018 05:00:00 4,2 -1,0 61 33 72 39 W 986,9 10
17.01.2018 04:00:00 4,5 -1,5 63 34 68 37 - 986,7 10
17.01.2018 03:00:00 4,5 -0,7 55 30 65 35 W 986,2 10
17.01.2018 02:00:00 4,7 -1,4 61 33 65 35 - 985,7 10
17.01.2018 01:00:00 4,6 -0,8 44 24 61 33 W 985,5 10
17.01.2018 00:00:00 4,6 -0,5 57 31 65 35 - 985,3 10
16.01.2018 23:00:00 4,6 0,2 46 25 61 33 W 985,0 10
16.01.2018 22:00:00 4,1 0,8 50 27 58 31 W 985,1 10
16.01.2018 21:00:00 4,9 0,9 54 29 58 31 W 985,2 10

tt = temperatuur
td = dauwpunt
ff = windsnelheid
fx = windstoten
dd = windrichting
ppp = luchtdruk
vv = zicht

Weerstations in de omgeving